Weather in Kalyan

India     19°14′19″N   73°07′58″E
temp.,
°C
wind,
m/s
gust,
m/s
humid.,
%
clouds,
%
prec.,
mm/h
press.,
hPa
HPBL,
m
9 may, sun
sun923:30+32wsw23500 0.0 1007296
02:30+30sw34620 0.0 1006475
05:30+29wsw136612 0.0 1007266
08:30+32w11533 0.0 1009810
11:30+39nw21290 0.0 10071593
14:30+41w752529 0.0 10043044
17:30+37w66310 0.0 10041084
20:30+32sw34440 0.0 1006598
10 may, mon
mon1023:30+31sw23540 0.0 1007376
02:30+30wsw23620 0.0 1005378
05:30+29wnw11660 0.0 100779
08:30+32nnw12540 0.0 1008896
11:30+38wnw23270 0.0 10071638
14:30+40w75255 0.0 10042357
17:30+36w65280 0.0 10041207
20:30+32wsw34440 0.0 1006587
11 may, tue
tue1123:30+30wsw24570 0.0 1007549
02:30+29wsw23640 0.0 1006268
05:30+28w11696 0.0 100734
08:30+30nw22580 0.0 10091126
11:30+37w34303 0.0 10081776
14:30+38w762638 0.0 10051817
17:30+35w65355 0.0 10051262
20:30+30wsw45575 0.0 1007831
12 may, wed
wed1223:30+29sw236415 0.0 1008715
02:30+28sw116915 0.0 100676
05:30+27se117223 0.0 100736
08:30+30wsw125612 0.0 10081204
11:30+36w34290 0.0 10072006
14:30+38w76260 0.0 10042053
17:30+34w66350 0.0 10041503
20:30+30w34560 0.0 1005799
13 may, thu
thu1323:30+29wsw246415 0.0 1006563
02:30+28sw11699 0.0 100538
05:30+27s117370 0.0 100613
08:30+30wsw125690 0.0 10071101
11:30+37w442645 0.0 10052106
14:30+38w6523100 0.0 10032164
17:30+34w6432100 0.0 10031571
20:30+30w3552100 0.0 1005510